DateTimeUTC,F1_A11,F1_S11,BsB_S11,BsG_S11,BsR_S11,BbsB_S11,BbsG_S11,BbsR_S11,BaB_A11,BaG_A11,BaR_A11,Tu_S11,T_S11,Uu_S11,U_S11,P_S11,T1_A11
2021-03-01T23:00:00Z,00000200,21000000,,,,,,,-000.48,-000.07,-000.34,16.0,23.7,,00.0,0645.0,30.9
2021-03-01T23:01:00Z,00000200,21000000,,,,,,,-000.13,-000.48,0000.14,16.0,23.7,,00.0,0645.0,30.9
2021-03-01T23:02:00Z,00000200,21000000,,,,,,,0000.55,0000.33,-000.01,16.0,23.8,,00.0,0645.0,30.9
2021-03-01T23:03:00Z,00000200,61000000,,,,,,,0000.32,0000.60,0000.43,16.0,23.8,,00.0,0645.0,30.9
2021-03-01T23:04:00Z,00000200,41000000,0001.02,0000.72,0000.15,-000.09,0000.44,-000.09,-000.15,-000.21,0000.08,16.3,23.6,,00.0,0646.0,30.9
2021-03-01T23:05:00Z,00000200,01000000,0000.58,0000.74,0000.48,-000.12,0000.01,-000.19,0000.46,0000.37,0000.29,16.4,23.6,,00.0,0646.1,30.9
2021-03-01T23:06:00Z,00000200,01000000,0000.81,0000.67,0000.45,0000.53,0000.08,0000.16,0000.66,0000.26,0000.14,16.5,23.6,,00.0,0646.1,30.9
2021-03-01T23:07:00Z,00000200,01000000,0001.06,0000.64,0000.65,0000.31,0000.05,0000.01,0000.04,0000.45,0000.03,16.5,23.6,,00.0,0646.1,30.9
2021-03-01T23:08:00Z,00000200,01000000,0001.63,0000.82,0000.61,0000.33,0000.02,0000.06,0000.18,0000.10,0000.35,16.5,23.6,,00.0,0646.2,30.9
2021-03-01T23:09:00Z,00000200,01000000,0000.98,0000.95,0000.26,0000.04,0000.08,-000.15,0000.58,0000.15,-000.01,16.6,23.7,,00.0,0646.2,30.9
2021-03-01T23:10:00Z,00000200,01000000,0001.25,0000.84,0000.37,0000.33,0000.10,0000.17,-000.03,0000.66,0000.41,16.6,23.7,,00.0,0646.2,30.9
2021-03-01T23:11:00Z,00000200,01000000,0000.99,0000.84,0000.26,0000.14,0000.01,0000.09,0000.25,0000.07,0000.19,16.7,23.7,,00.0,0646.2,30.9
2021-03-01T23:12:00Z,00000200,01000000,0000.84,0000.74,0000.52,0000.21,0000.18,0000.46,0000.21,0000.30,0000.14,16.7,23.7,,00.0,0646.2,31.0
2021-03-01T23:13:00Z,00000200,01000000,0001.01,0000.85,0000.29,0000.58,0000.23,0000.06,0000.53,0000.54,0000.00,16.7,23.7,,00.0,0646.2,30.9
2021-03-01T23:14:00Z,00000200,01000000,0001.10,0000.91,0000.37,-000.16,0000.12,-000.00,-000.38,-000.14,0000.25,16.6,23.7,,00.0,0646.1,30.9
2021-03-01T23:15:00Z,00000200,01000000,0000.95,0000.72,0000.38,0000.18,0000.12,0000.13,0000.75,0000.10,0000.35,16.6,23.6,,00.0,0646.1,30.9
2021-03-01T23:16:00Z,00000200,01000000,0000.51,0000.70,0000.43,0000.07,0000.19,0000.05,0000.17,0000.15,-000.12,16.7,23.7,,00.0,0646.1,30.9
2021-03-01T23:17:00Z,00000200,01000000,0000.85,0000.66,0000.52,0000.25,0000.06,0000.04,0000.34,0000.52,0000.19,16.7,23.7,,00.0,0646.1,30.9
2021-03-01T23:18:00Z,00000200,01000000,0001.17,0000.82,0000.37,0000.49,0000.27,-000.08,0000.31,0000.17,0000.28,16.7,23.7,,00.0,0646.1,30.9
2021-03-01T23:19:00Z,00000200,01000000,0001.33,0000.53,0000.32,0000.09,0000.10,0000.21,0000.40,0000.47,0000.52,16.7,23.7,,00.0,0646.1,30.9
2021-03-01T23:20:00Z,00000200,01000000,0000.58,0000.75,0000.46,0000.08,-000.14,0000.05,-000.26,-000.04,0000.16,16.6,23.7,,00.0,0646.1,30.9
2021-03-01T23:21:00Z,00000200,01000000,0000.10,0000.73,0000.43,0000.21,0000.39,0000.23,0000.51,0000.58,-000.16,16.5,23.7,,00.0,0646.1,30.9
2021-03-01T23:22:00Z,00000200,01000000,0000.85,0000.72,0000.34,0000.08,0000.04,-000.16,0000.08,0000.06,0000.07,16.5,23.6,,00.0,0646.1,30.9
2021-03-01T23:23:00Z,00000200,01000000,0000.80,0000.68,0000.34,0000.02,0000.20,0000.08,0000.18,0000.19,0000.35,16.4,23.6,,00.0,0646.1,30.9
2021-03-01T23:24:00Z,00000200,01000000,0000.73,0000.86,0000.17,0000.09,0000.16,-000.16,0000.48,0000.07,-000.07,16.3,23.6,,00.0,0646.1,30.9
2021-03-01T23:25:00Z,00000200,01000000,0001.19,0000.76,0000.42,0000.18,0000.12,0000.31,0000.43,0000.17,0000.37,16.3,23.5,,00.0,0646.1,30.9
2021-03-01T23:26:00Z,00000200,01000000,0000.77,0000.69,0000.38,0000.21,0000.24,-000.09,-000.03,0000.17,0000.00,16.2,23.4,,00.0,0646.1,30.9
2021-03-01T23:27:00Z,00000200,01000000,0001.05,0000.80,0000.10,0000.12,0000.13,-000.18,0000.35,0000.49,0000.23,16.1,23.4,,00.0,0646.1,30.9
2021-03-01T23:28:00Z,00000200,01000000,0000.96,0000.94,0000.20,0000.14,0000.06,-000.05,0000.27,-000.12,0000.43,16.1,23.4,,00.0,0646.1,30.9
2021-03-01T23:29:00Z,00000200,01000000,0001.30,0000.73,0000.44,-000.17,-000.03,0000.05,-000.09,-000.03,-000.12,16.0,23.4,,00.0,0646.1,30.9
2021-03-01T23:30:00Z,00000200,01000000,0001.18,0000.59,0000.47,-000.29,0000.25,0000.01,0000.61,0000.71,0000.40,16.0,23.3,,00.0,0646.1,30.9
2021-03-01T23:31:00Z,00000200,01000000,0001.27,0000.59,0000.25,0000.18,0000.45,0000.27,0000.30,0000.16,0000.21,16.1,23.3,,00.0,0646.1,30.9
2021-03-01T23:32:00Z,00000200,01000000,0000.71,0000.73,0000.75,0000.28,0000.31,-000.02,0000.30,0000.06,-000.15,16.1,23.3,,00.0,0646.1,30.9
2021-03-01T23:33:00Z,00000200,01000000,0000.98,0000.65,0000.09,0000.11,0000.10,0000.16,0000.25,0000.20,0000.33,16.2,23.3,,00.0,0646.1,30.9
2021-03-01T23:34:00Z,00000200,01000000,0001.41,0000.69,0000.48,0000.47,0000.16,0000.14,0000.38,0000.89,0000.47,16.2,23.4,,00.0,0646.1,30.9
2021-03-01T23:35:00Z,00000200,01000000,0001.28,0000.52,0000.52,0000.31,0000.03,-000.02,0000.51,-000.07,0000.18,16.2,23.4,,00.0,0646.2,30.9
2021-03-01T23:36:00Z,00000200,01000000,0001.46,0000.46,0000.38,0000.13,0000.08,0000.03,0000.07,0000.38,0000.23,16.3,23.4,,00.0,0646.3,30.9
2021-03-01T23:37:00Z,00000200,01000000,0000.76,0000.76,0000.51,0000.30,0000.23,-000.09,0000.40,0000.48,0000.32,16.3,23.4,,00.0,0646.3,30.9
2021-03-01T23:38:00Z,00000200,01000000,0000.93,0000.66,0000.50,0000.01,0000.03,0000.24,0000.38,0000.06,0000.06,16.4,23.5,,00.0,0646.3,30.9
2021-03-01T23:39:00Z,00000200,01000000,0000.88,0000.71,0000.44,0000.34,-000.04,0000.38,0000.06,0000.32,0000.35,16.4,23.4,,00.0,0646.3,30.9
2021-03-01T23:40:00Z,00000200,01000000,0001.15,0000.58,0000.35,-000.09,0000.14,0000.03,-000.00,0000.13,0000.03,16.3,23.4,,00.0,0646.3,30.9
2021-03-01T23:41:00Z,00000200,01000000,0000.25,0000.62,0000.44,-000.22,0000.24,0000.10,0000.25,0000.13,0000.07,16.3,23.4,,00.0,0646.3,30.9
2021-03-01T23:42:00Z,00000200,01000000,0001.55,0000.85,0000.28,-000.23,0000.20,0000.00,0000.06,0000.00,0000.16,16.2,23.4,,00.0,0646.4,30.9
2021-03-01T23:43:00Z,00000200,01000000,0000.78,0000.81,0000.21,0000.06,0000.28,0000.04,0000.25,0000.58,-000.12,16.1,23.3,,00.0,0646.4,30.9
2021-03-01T23:44:00Z,00000200,01000000,0000.99,0000.65,0000.51,0000.47,0000.25,0000.05,0000.26,-000.24,0000.18,16.1,23.3,,00.0,0646.3,30.9
2021-03-01T23:45:00Z,00000200,01000000,0001.55,0000.61,0000.33,0000.34,0000.30,-000.04,0000.45,0000.58,0000.41,16.1,23.3,,00.0,0646.3,30.9
2021-03-01T23:46:00Z,00000200,01000000,0001.48,0000.72,0000.40,-000.05,0000.06,0000.05,0000.34,0000.18,-000.01,16.1,23.3,,00.0,0646.3,30.9
2021-03-01T23:47:00Z,00000200,01000000,0000.84,0000.61,0000.37,0000.27,0000.09,0000.28,0000.22,-000.20,0000.09,16.2,23.3,,00.0,0646.3,30.9
2021-03-01T23:48:00Z,00000200,01000000,0001.17,0000.55,0000.57,0000.09,0000.18,0000.25,0000.23,0000.34,0000.55,16.2,23.3,,00.0,0646.3,30.9
2021-03-01T23:49:00Z,00000200,01000000,0000.81,0000.46,0000.25,0000.14,0000.22,0000.02,0000.35,0000.45,-000.08,16.2,23.3,,00.0,0646.3,30.9
2021-03-01T23:50:00Z,00000200,01000000,0001.18,0000.54,0000.54,0000.10,0000.19,-000.07,0000.34,0000.19,0000.07,16.3,23.4,,00.0,0646.3,30.9
2021-03-01T23:51:00Z,00000200,01000000,0000.83,0000.72,0000.32,0000.18,0000.06,0000.13,0000.53,0000.94,0000.91,16.3,23.4,,00.0,0646.3,30.9
2021-03-01T23:52:00Z,00000200,01000000,0001.15,0000.54,0000.34,0000.06,0000.11,-000.07,0000.34,-000.15,0000.18,16.4,23.4,,00.0,0646.3,30.9
2021-03-01T23:53:00Z,00000200,01000000,0001.40,0000.67,0000.54,0000.46,0000.07,0000.07,0000.36,0000.55,-000.10,16.4,23.4,,00.0,0646.3,30.9
2021-03-01T23:54:00Z,00000200,01000000,0000.82,0000.78,0000.39,-000.14,-000.14,0000.09,0000.09,0000.51,0000.56,16.4,23.5,,00.0,0646.2,30.9
2021-03-01T23:55:00Z,00000200,01000000,0000.67,0000.87,0000.60,0000.33,0000.23,-000.04,0000.62,0000.23,0000.15,16.4,23.4,,00.0,0646.2,30.9
2021-03-01T23:56:00Z,00000200,01000000,0000.92,0000.82,0000.35,0000.14,0000.04,-000.01,0000.09,0000.29,0000.15,16.4,23.4,,00.0,0646.2,30.9
2021-03-01T23:57:00Z,00000200,41000000,,,,,,,0000.90,0000.48,0000.49,16.5,23.5,,00.0,0646.3,30.9
2021-03-01T23:58:00Z,00000200,61000000,,,,,,,-000.51,-000.03,-000.19,15.9,23.6,,00.0,0645.4,30.9
2021-03-01T23:59:00Z,00000200,21000000,,,,,,,-000.38,-000.93,-000.48,15.9,23.7,,00.0,0645.4,30.9
